Location: ???????
(55.4362°N, 38.1183°E)
Time: 02:40:02
(UTC+00:00)

Cosmos-2242 - Pass Details

Date: 17 June 2021
Orbit: 590 x 617 km, 82.5° (Epoch: 26 July)

Event Time Altitude Azimuth Distance (km) Brightness Sun altitude
Rises 21:46:08 0° 347° (NNW) 2,904 8.1 -11.1°
Reaches altitude 10° 21:48:22 10° 348° (NNW) 1,995 7.0 -11.0°
Maximum altitude 21:52:48 88° 264° (W) 627 3.1 -11.0°
Enters shadow 21:56:30 15° 171° (S) 1,700 4.7 -10.9°
